| time (UTC) | temp F | wind direction | speed knots | gust knots | rain 1hr in | rain 24hr in | rain mn in | humidity % | barometer mb |
| 20260504184116 | 84 | 264 | 4.3 | 7.8 | 0.00 | 0.00 | 0.00 | 24 | 999.4 |
| 20260504183115 | 85 | 358 | 1.7 | 4.3 | 0.00 | 0.00 | 0.00 | 26 | 999.4 |
| 20260504182116 | 83 | 295 | 3.5 | 7.8 | 0.00 | 0.00 | 0.00 | 26 | 999.4 |
| 20260504181116 | 83 | 273 | 6.1 | 13.0 | 0.00 | 0.00 | 0.00 | 26 | 999.4 |
| 20260504180136 | 82 | 265 | 3.5 | 11.3 | 0.00 | 0.00 | 0.00 | 27 | 999.4 |
| 20260504175117 | 82 | 284 | 3.5 | 9.6 | 0.00 | 0.00 | 0.00 | 27 | 999.4 |
| 20260504174116 | 83 | 269 | 2.6 | 5.2 | 0.00 | 0.00 | 0.00 | 26 | 999.4 |
| 20260504173117 | 82 | 232 | 3.5 | 7.0 | 0.00 | 0.00 | 0.00 | 27 | 999.4 |
| 20260504172116 | 82 | 135 | 2.6 | 5.2 | 0.00 | 0.00 | 0.00 | 27 | 999.4 |
| 20260504171115 | 83 | 257 | 3.5 | 11.3 | 0.00 | 0.00 | 0.00 | 26 | 999.4 |
| 20260504170115 | 82 | 269 | 5.2 | 12.2 | 0.00 | 0.00 | 0.00 | 27 | 999.4 |
| 20260504160116 | 83 | 134 | 4.3 | 5.2 | 0.00 | 0.00 | 0.00 | 29 | 1000.4 |
| 20260504151115 | 77 | 156 | 3.5 | 4.3 | 0.00 | 0.00 | 0.00 | 33 | 1000.4 |
| 20260504150117 | 77 | 174 | 4.3 | 6.1 | 0.00 | 0.00 | 0.00 | 34 | 1000.4 |
| 20260504141116 | 73 | 150 | 2.6 | 3.5 | 0.00 | 0.00 | 0.00 | 37 | 1001.4 |
| 20260504140115 | 69 | 122 | 2.6 | 6.1 | 0.00 | 0.00 | 0.00 | 39 | 1001.4 |
| 20260504130115 | 64 | 272 | 0.9 | 1.7 | 0.00 | 0.00 | 0.00 | 47 | 1001.4 |
| 20260504120116 | 55 | 274 | 4.3 | 5.2 | 0.00 | 0.00 | 0.00 | 56 | 1001.4 |
| 20260504110116 | 51 | 275 | 7.0 | 7.0 | 0.00 | 0.00 | 0.00 | 63 | 1001.4 |
| 20260504100115 | 50 | 274 | 7.0 | 7.0 | 0.00 | 0.00 | 0.00 | 62 | 1002.5 |
| 20260504090117 | 52 | 273 | 6.1 | 7.0 | 0.00 | 0.00 | 0.00 | 56 | 1002.5 |
| 20260504081136 | 51 | 273 | 6.1 | 7.0 | 0.00 | 0.00 | 0.00 | 56 | 1003.5 |
| 20260504080135 | 52 | 273 | 6.1 | 6.1 | 0.00 | 0.00 | 0.00 | 55 | 1003.5 |
| 20260504070135 | 56 | 274 | 4.3 | 4.3 | 0.00 | 0.00 | 0.00 | 46 | 1004.5 |
| 20260504060115 | 54 | 274 | 5.2 | 5.2 | 0.00 | 0.00 | 0.00 | 51 | 1005.5 |
| 20260504050116 | 56 | 275 | 3.5 | 3.5 | 0.00 | 0.00 | 0.00 | 45 | 1005.5 |
| 20260504045117 | 56 | 274 | 3.5 | 3.5 | 0.00 | 0.00 | 0.00 | 45 | 1005.5 |
| 20260504044115 | 56 | 274 | 2.6 | 3.5 | 0.00 | 0.00 | 0.00 | 44 | 1005.5 |
| 20260504043118 | 57 | 274 | 3.5 | 3.5 | 0.00 | 0.00 | 0.00 | 43 | 1005.5 |
| 20260504042115 | 58 | 274 | 2.6 | 2.6 | 0.00 | 0.00 | 0.00 | 42 | 1005.5 |
| 20260504041116 | 58 | 275 | 2.6 | 2.6 | 0.00 | 0.00 | 0.00 | 41 | 1006.6 |
| 20260504040136 | 58 | 276 | 1.7 | 2.6 | 0.00 | 0.00 | 0.00 | 41 | 1006.6 |
| 20260504035116 | 59 | 277 | 0.9 | 1.7 | 0.00 | 0.00 | 0.00 | 39 | 1006.6 |
| 20260504034117 | 60 | 322 | 0.0 | 0.9 | 0.00 | 0.00 | 0.00 | 37 | 1006.6 |
| 20260504033115 | 62 | 0.0 | 0.0 | 0.00 | 0.00 | 0.00 | 35 | 1006.6 | |
| 20260504032115 | 62 | 0.0 | 0.0 | 0.00 | 0.00 | 0.00 | 35 | 1006.6 | |
| 20260504031117 | 63 | 37 | 0.0 | 0.9 | 0.00 | 0.00 | 0.00 | 33 | 1006.6 |
| 20260504030115 | 63 | 55 | 0.0 | 0.9 | 0.00 | 0.00 | 0.00 | 33 | 1006.6 |
| 20260504025116 | 63 | 80 | 0.9 | 1.7 | 0.00 | 0.00 | 0.00 | 32 | 1006.6 |
| 20260504024137 | 63 | 84 | 1.7 | 1.7 | 0.00 | 0.00 | 0.00 | 32 | 1006.6 |
| 20260504023115 | 63 | 80 | 0.9 | 1.7 | 0.00 | 0.00 | 0.00 | 33 | 1006.6 |
| 20260504022116 | 64 | 78 | 1.7 | 1.7 | 0.00 | 0.00 | 0.00 | 32 | 1006.6 |
| 20260504021116 | 64 | 76 | 1.7 | 1.7 | 0.00 | 0.00 | 0.00 | 32 | 1006.6 |
| 20260504020117 | 64 | 79 | 1.7 | 1.7 | 0.00 | 0.00 | 0.00 | 31 | 1006.6 |
| 20260504015118 | 65 | 83 | 1.7 | 2.6 | 0.00 | 0.00 | 0.00 | 31 | 1006.6 |
| 20260504014116 | 67 | 71 | 1.7 | 1.7 | 0.00 | 0.00 | 0.00 | 29 | 1006.6 |
| 20260504013135 | 67 | 77 | 3.5 | 3.5 | 0.00 | 0.00 | 0.00 | 28 | 1006.6 |
| 20260504012156 | 69 | 69 | 3.5 | 3.5 | 0.00 | 0.00 | 0.00 | 27 | 1006.6 |
| 20260504011116 | 71 | 82 | 3.5 | 3.5 | 0.00 | 0.00 | 0.00 | 26 | 1006.6 |
| 20260504010115 | 74 | 90 | 2.6 | 3.5 | 0.00 | 0.00 | 0.00 | 25 | 1006.6 |
| 20260504005117 | 76 | 90 | 1.7 | 3.5 | 0.00 | 0.00 | 0.00 | 23 | 1006.6 |
| 20260504004116 | 77 | 85 | 0.9 | 2.6 | 0.00 | 0.00 | 0.00 | 23 | 1006.6 |
| 20260504003117 | 79 | 111 | 0.9 | 3.5 | 0.00 | 0.00 | 0.00 | 22 | 1006.6 |
| 20260504002115 | 82 | 90 | 2.6 | 3.5 | 0.00 | 0.00 | 0.00 | 21 | 1006.6 |
| 20260504001116 | 81 | 102 | 0.9 | 2.6 | 0.00 | 0.00 | 0.00 | 21 | 1006.6 |
| 20260504000116 | 83 | 128 | 1.7 | 3.5 | 0.00 | 0.00 | 0.00 | 19 | 1006.6 |
| 20260503235115 | 84 | 114 | 0.9 | 2.6 | 0.00 | 0.00 | 0.00 | 20 | 1006.6 |
| 20260503234136 | 84 | 89 | 0.9 | 2.6 | 0.00 | 0.00 | 0.00 | 20 | 1006.6 |
| 20260503233136 | 84 | 241 | 2.6 | 7.0 | 0.00 | 0.00 | 0.00 | 19 | 1006.6 |
| 20260503232117 | 85 | 230 | 1.7 | 3.5 | 0.00 | 0.00 | 0.00 | 18 | 1006.6 |
| 20260503231115 | 84 | 287 | 0.9 | 2.6 | 0.00 | 0.00 | 0.00 | 19 | 1006.6 |
| 20260503230117 | 87 | 335 | 2.6 | 3.5 | 0.00 | 0.00 | 0.00 | 18 | 1006.6 |
| 20260503225116 | 87 | 33 | 2.6 | 6.1 | 0.00 | 0.00 | 0.00 | 17 | 1006.6 |
| 20260503224136 | 85 | 332 | 2.6 | 4.3 | 0.00 | 0.00 | 0.00 | 18 | 1006.6 |
| 20260503223117 | 87 | 6 | 2.6 | 7.0 | 0.00 | 0.00 | 0.00 | 19 | 1006.6 |
| 20260503222115 | 86 | 316 | 1.7 | 4.3 | 0.00 | 0.00 | 0.00 | 20 | 1006.6 |
| 20260503221117 | 86 | 81 | 1.7 | 3.5 | 0.00 | 0.00 | 0.00 | 18 | 1006.6 |
| 20260503220115 | 84 | 269 | 3.5 | 7.0 | 0.00 | 0.00 | 0.00 | 18 | 1006.6 |
| 20260503215116 | 84 | 262 | 4.3 | 8.7 | 0.00 | 0.00 | 0.00 | 19 | 1006.6 |
| 20260503214117 | 84 | 283 | 2.6 | 5.2 | 0.00 | 0.00 | 0.00 | 19 | 1006.6 |
| 20260503213137 | 83 | 261 | 1.7 | 3.5 | 0.00 | 0.00 | 0.00 | 20 | 1006.6 |
| 20260503212116 | 84 | 9 | 1.7 | 4.3 | 0.00 | 0.00 | 0.00 | 21 | 1007.5 |
| 20260503211116 | 86 | 80 | 3.5 | 5.2 | 0.00 | 0.00 | 0.00 | 20 | 1007.6 |
| 20260503210116 | 83 | 255 | 1.7 | 4.3 | 0.00 | 0.00 | 0.00 | 20 | 1007.6 |
| 20260503205120 | 82 | 47 | 2.6 | 5.2 | 0.00 | 0.00 | 0.00 | 21 | 1007.6 |
| 20260503204115 | 80 | 48 | 2.6 | 5.2 | 0.00 | 0.00 | 0.00 | 22 | 1007.6 |
| 20260503203115 | 82 | 45 | 1.7 | 3.5 | 0.00 | 0.00 | 0.00 | 21 | 1007.6 |
| 20260503202115 | 84 | 63 | 4.3 | 6.1 | 0.00 | 0.00 | 0.00 | 21 | 1007.6 |
| 20260503201118 | 86 | 47 | 7.8 | 13.0 | 0.00 | 0.00 | 0.00 | 19 | 1007.6 |
| 20260503200115 | 84 | 62 | 3.5 | 5.2 | 0.00 | 0.00 | 0.00 | 21 | 1007.6 |
| 20260503195137 | 86 | 78 | 5.2 | 7.0 | 0.00 | 0.00 | 0.00 | 22 | 1007.6 |
| 20260503194115 | 86 | 69 | 5.2 | 7.8 | 0.00 | 0.00 | 0.00 | 22 | 1007.6 |
| 20260503193115 | 85 | 62 | 5.2 | 10.4 | 0.00 | 0.00 | 0.00 | 23 | 1007.6 |
| 20260503192115 | 82 | 66 | 5.2 | 8.7 | 0.00 | 0.00 | 0.00 | 23 | 1007.6 |
| 20260503191116 | 80 | 293 | 4.3 | 7.8 | 0.00 | 0.00 | 0.00 | 24 | 1007.6 |
| 20260503190117 | 81 | 74 | 3.5 | 7.0 | 0.00 | 0.00 | 0.00 | 24 | 1007.6 |
| 20260503185117 | 80 | 29 | 1.7 | 5.2 | 0.00 | 0.00 | 0.00 | 25 | 1007.6 |